935  
ASUS41 KBOX 222004  
RWRBOX  
 
REGIONAL WEATHER ROUNDUP  
NATIONAL WEATHER SERVICE BOSTON/NORTON MA  
400 PM EDT FRI OCT 22 2021  
 
NOTE: "FAIR" INDICATES FEW OR NO CLOUDS BELOW 12,000 FEET WITH NO  
SIGNIFICANT WEATHER AND/OR S TO VISIBILITY
.  
 
MAZALL-222100-  
EASTERN MASSACHUSETTS  
 
CITY SKY/WX TMP DP RH WIND PRES REMARKS
 
BOSTON PTSUNNY 71 48 43 W13G18 29.82R  
BEVERLY MOSUNNY 71 50 47 W9 29.81S  
LAWRENCE CLOUDY 68 51 54 W10 29.84R  
BEDFORD PTSUNNY 69 51 52 W8 29.82R  
BLUE HILL NOT AVBL  
NORWOOD MOSUNNY 72 50 45 W8 29.82S  
MARSHFIELD PTSUNNY 72 54 53 VRB6 29.82S  
PLYMOUTH MOSUNNY 71 54 54 W10 29.83R  
TAUNTON MOSUNNY 70 55 59 SW3 29.82S  
NEW BEDFORD SUNNY 69 53 56 SW14 29.83R  

 
 
MAZALL-222100-  
CAPE COD AND THE ISLANDS  
 
CITY SKY/WX TMP DP RH WIND PRES REMARKS
 
FALMOUTH NOT AVBL  
HYANNIS SUNNY 66 58 75 SW15 29.83R  
CHATHAM SUNNY 67 58 72 SW9G17 29.86R  
PROVINCETOWN SUNNY 67 57 70 SW13 29.84R  
NANTUCKET MOSUNNY 67 60 78 SW9 29.87S  
MARTHAS VNYRD SUNNY 66 59 78 SW10 29.86R  

 
 
MAZALL-222100-  
CENTRAL AND WESTERN MASSACHUSETTS  
 
CITY SKY/WX TMP DP RH WIND PRES REMARKS
 
WORCESTER CLOUDY 64 48 56 W10 29.86R  
FITCHBURG CLOUDY 67 45 45 W10 29.84S  
ORANGE PTSUNNY 65 46 50 W9 29.87R  
SPRINGFIELD PTSUNNY 66 47 51 NW8 29.85R  
WESTFIELD PTSUNNY 65 49 56 NW7 29.86R  
NORTH ADAMS CLOUDY 58 45 62 MISG 29.90R  
PITTSFIELD CLOUDY 56 43 61 NW5 29.89R  

 
 
RIZALL-222100-  
RHODE ISLAND  
 
CITY SKY/WX TMP DP RH WIND PRES REMARKS
 
PROVIDENCE PTSUNNY 72 53 51 SW8 29.83S  
NEWPORT SUNNY 67 52 58 SW8 29.85R  
BLOCK ISLAND MOSUNNY 67 57 70 SW13 29.87R  
SMITHFIELD PTSUNNY 68 51 54 W7 29.84S  
WESTERLY SUNNY 68 56 65 SW9 29.85S  

 
 
CTZALL-222100-  
CONNECTICUT  
 
CITY SKY/WX TMP DP RH WIND PRES REMARKS
 
BRADLEY INTL PTSUNNY 67 51 56 NW10 29.86R  
HARTFORD PTSUNNY 69 50 50 W7 29.84R  
BRIDGEPORT SUNNY 70 54 56 SW14 29.86R  
DANBURY CLOUDY 67 49 52 W7 29.88S  
GROTON SUNNY 68 56 65 W9 29.85S  
NEW HAVEN MOSUNNY 70 57 63 SW8 29.85S  
CHESTER FAIR 70 54 56 VRB9 29.86S  
MERIDEN PTSUNNY 70 49 47 NW8 29.85R  
WILLIMANTIC PTSUNNY 69 49 48 SW7 29.84S  
OXFORD PTSUNNY 66 47 50 W8 29.88R  

 
 
MEZ002-015-021-024-NHZ003-005-008-011-012-014-VTZ005-008-222100-  
NORTHERN NEW ENGLAND  
 
CITY SKY/WX TMP DP RH WIND PRES REMARKS
 
PORTLAND ME PTSUNNY 67 53 61 W8 29.78R  
BANGOR ME MOSUNNY 68 54 60 SW8 29.76R  
CONCORD NH CLOUDY 66 48 52 W10 29.82R  
MANCHESTER NH PTSUNNY 68 47 46 W6 29.81R  
NASHUA NH PTSUNNY 67 50 54 W5 29.83S  
PORTSMOUTH NH PTSUNNY 69 48 47 W9 29.82R  
JAFFREY NH PTSUNNY 65 45 48 W9G18 29.86R  
KEENE NH SUNNY 65 46 50 W8 29.86R  
BURLINGTON VT PTSUNNY 53 42 66 N9 29.90R  
MT. WASHINGTON DRZL/FOG 36 36 100 W23 N/A VSB 0 WCI 24  

 
 
NYZ052-076-222100-  
EASTERN NEW YORK  
 
CITY SKY/WX TMP DP RH WIND PRES REMARKS
 
ALBANY PTSUNNY 57 45 64 W13 29.94R  
NEW YORK CITY MOSUNNY 71 46 40 W8 29.86S  

 
 
ANZALL-222100-  
MARINE OBSERVATIONS  
 
STATION/POSITION TIME TEMP WIND PRES VSBY WAVE
 
AIR SEA DIR/SP/G HT/PER  
(UTC) (F) (DEG/KT/KT) (MB) (MI) (FT/S)  
BOSTON BUOY 1940 60 260/ 4/ 6 1010.1R  
BUZZARDS BAY 1900 240/ 17/ 18 1011.6F  
NANTUCKET SOUND 1940 67 64 230/ 16/ 19 1010.5R  
MASS BAY-STELLWA 1904 63 250/ 6/ 8 1008.7R 1 7/8 2/ 5  
ISLE OF SHOALS 1900 67 240/ 13/ 15 1008.5R  
S OF BLOCK IS 1926 65 N/A 7/ 8  

 
   
.....................KEY......................
 
 
SKY/WX - SKY CONDITION/PRESENT WEATHER  
TMP - TEMPERATURE IN FAHRENHEIT  
DWPT - DEWPOINT IN FAHRENHEIT  
RH - RELATIVE HUMIDITY IN PERCENT  
WIND - DIRECTION AND SPEED IN MPH  
PRES - MEAN SEA LEVEL PRESSURE IN INCHES OF HG  
WCI - WIND CHILL INDEX  
VSB - VISIBILITY IN MILES  
HX - HEAT INDEX  
TC - TEMPERATURE IN CELSIUS  
VRB - VARIABLE WIND DIRECTION  
N/A - NOT AVAILABLE  
 
 
CLICK HERE TO GO TO PREVIOUS BULLETINS.

The Nexlab MA Page
The Nexlab RI Page
The Nexlab NH Page
The Nexlab CT Page Main Text Page